Flag for Saudi Arabia Weather past 2 weeks in Jeddah, Saudi Arabia

Now
88 °F

Passing clouds.


Feels Like: 98 °F
Forecast: 85 / 99 °F
Wind: No wind

Location: Jeddah King Abdul Aziz International Airport

Current Time: Aug 28, 2014 at 12:37:45 AM

Latest Report: Aug 28, 2014 at 12:00 AM


Visibility: N/A

Pressure: 29.62 "Hg

Humidity: 66%

Dew point: 75 °F

Location of JeddahLocation

Historic Weather in Jeddah — Graph

°F

Jeddah temperature yesterday

Maximum temperature yesterday: 100 °F (at 1:00 PM)
Minimum temperature yesterday: 88 °F (at 3:00 AM)
Average temperature yesterday: 92 °F

Past Weeks' High & Low Weather Summary

 TemperatureHumidityPressure
High104 °F (Aug 18, 12:00 PM)89% (Aug 27, 4:00 AM)29.74 "Hg (Aug 27, 4:00 AM)
Low81 °F (Aug 18, 6:00 AM)19% (Aug 19, 12:00 PM)29.50 "Hg (Aug 22, 5:00 PM)
Average93 °F52%29.61 "Hg
* Reported Aug 12 11:00 PM — Aug 27 11:00 PM, Jeddah, Weather by CustomWeather, © 2014

Note: Actual official high and low records may vary slightly from our data, if they occured in-between our weather recording intervals... More about our weather records

Advertising

Jeddah weather history for previous 24 hours

 ConditionsComfort  
Time TempWeatherWind HumidityBarometerVisibility
11:00 PM
Aug 27
88 °FPassing clouds.5 mph66%29.62 "HgN/A
10:00 PM88 °FPassing clouds.5 mph66%29.65 "HgN/A
9:00 PM90 °FPassing clouds.5 mph63%29.62 "HgN/A
8:00 PM88 °FPassing clouds.9 mph59%29.62 "HgN/A
7:00 PM90 °FPassing clouds.9 mph52%29.59 "HgN/A
5:00 PM93 °FPassing clouds.12 mph44%29.62 "HgN/A
4:00 PM97 °FPassing clouds.12 mph37%29.62 "HgN/A
3:00 PM100 °FPassing clouds.14 mph29%29.62 "HgN/A
2:00 PM100 °FPassing clouds.16 mph29%29.62 "HgN/A
1:00 PM100 °FPassing clouds.14 mph33%29.65 "HgN/A
12:00 PM99 °FPassing clouds.12 mph39%29.68 "HgN/A
11:00 AM99 °FPassing clouds.9 mph44%29.71 "HgN/A
10:00 AM95 °FScattered clouds.No wind56%29.71 "HgN/A
9:00 AM91 °FScattered clouds.12 mph71%29.71 "HgN/A
8:00 AM90 °FScattered clouds.9 mph75%29.68 "HgN/A
7:00 AM90 °FScattered clouds.9 mph84%29.68 "HgN/A
6:00 AM88 °FPassing clouds.12 mph89%29.65 "HgN/A
5:00 AM88 °FPassing clouds.12 mph89%29.62 "HgN/A
4:00 AM88 °FPassing clouds.12 mph89%29.62 "HgN/A
3:00 AM88 °FPassing clouds.7 mph84%29.59 "HgN/A
2:00 AM90 °FPassing clouds.3 mph75%29.62 "HgN/A
1:00 AM91 °FPassing clouds.3 mph67%29.62 "HgN/A
12:00 AM91 °FPassing clouds.No wind71%29.62 "HgN/A
Weather by CustomWeather, © 2014

See weather overviewHow to use our weather pages